AUA51 LOWW-KLAX

Flight info

Callsign AUA51
Flight time N/A
Altitude 34000
Route LANU2C LANUX DCT HDO M748 BUMIL L619 ELSOB DCT ATTUS P992 LINVI DCT ZOL DCT ERSER/M083F340 DCT 6410N/M083F360 DCT 6620N DCT 6730N DCT 6840N DCT 6850N DCT 67N060W/N0484F380 DCT 6670N DCT 6480N DCT YYQ DCT YQD DCT GGW/N0472F400 DCT BIL DCT TCH/N0470F390 J9 FFU/N0471F400 J9 NORRA J107 BLD DCT HAKMN ANJLL4
Aircraft B772/H-SDE2E3FGHIJ5LORVWXY/LB1D1

Departure

Time 2026-05-08 05:27
Airport Vienna International Airport (LOWW)

Arrival

Time N/A
Airport Los Angeles International Airport (KLAX)
Time Latitude Longitude Altitude Speed Heading
2026-05-08 04:59 48.11753 16.56619 607 ft 0 kts 27°
2026-05-08 05:14 48.11739 16.56609 623 ft 4 kts 26°
2026-05-08 05:14 48.11715 16.56592 624 ft 3 kts 32°
2026-05-08 05:14 48.11698 16.56570 625 ft 4 kts 74°
2026-05-08 05:15 48.11702 16.56537 625 ft 4 kts 122°
2026-05-08 05:15 48.11710 16.56517 625 ft 2 kts 117°
2026-05-08 05:15 48.11710 16.56515 625 ft 4 kts 117°
2026-05-08 05:21 48.11710 16.56516 625 ft 0 kts 117°
2026-05-08 05:21 48.11709 16.56520 625 ft 3 kts 117°
2026-05-08 05:22 48.11704 16.56533 625 ft 3 kts 117°
2026-05-08 05:22 48.11677 16.56615 625 ft 10 kts 115°
2026-05-08 05:22 48.11648 16.56708 621 ft 10 kts 115°
2026-05-08 05:22 48.11619 16.56801 622 ft 10 kts 115°
2026-05-08 05:23 48.11586 16.56890 626 ft 10 kts 134°
2026-05-08 05:23 48.11521 16.56905 626 ft 10 kts 195°
2026-05-08 05:23 48.11458 16.56864 621 ft 10 kts 205°
2026-05-08 05:23 48.11396 16.56825 625 ft 10 kts 187°
2026-05-08 05:24 48.11341 16.56880 636 ft 10 kts 121°
2026-05-08 05:24 48.11297 16.57008 634 ft 18 kts 116°
2026-05-08 05:24 48.11234 16.57198 634 ft 21 kts 116°
2026-05-08 05:24 48.11172 16.57390 627 ft 21 kts 116°
2026-05-08 05:25 48.11116 16.57563 627 ft 11 kts 115°
2026-05-08 05:25 48.11070 16.57642 627 ft 9 kts 165°
2026-05-08 05:25 48.11012 16.57621 629 ft 9 kts 204°
2026-05-08 05:25 48.10958 16.57584 633 ft 9 kts 205°
2026-05-08 05:26 48.10930 16.57512 632 ft 9 kts 274°
2026-05-08 05:26 48.10951 16.57428 634 ft 9 kts 295°
2026-05-08 05:26 48.11005 16.57258 634 ft 40 kts 296°
2026-05-08 05:26 48.11227 16.56577 629 ft 107 kts 296°
2026-05-08 05:27 48.11633 16.55307 623 ft 162 kts 296°
2026-05-08 05:27 48.12107 16.53681 950 ft 176 kts 289°
2026-05-08 05:27 48.12323 16.51821 1388 ft 191 kts 264°
2026-05-08 05:27 48.11566 16.50050 1474 ft 225 kts 215°
2026-05-08 05:28 48.09988 16.49598 1731 ft 241 kts 166°
2026-05-08 05:28 48.08615 16.50980 2259 ft 245 kts 120°
2026-05-08 05:28 48.08062 16.53398 2503 ft 246 kts 89°
2026-05-08 05:28 48.08549 16.55812 2372 ft 256 kts 45°
2026-05-08 05:29 48.09190 16.56665 2365 ft 258 kts 25°
2026-05-08 05:30 48.10848 16.57209 2809 ft 250 kts 348°
2026-05-08 05:30 48.12377 16.55833 2516 ft 278 kts 302°
2026-05-08 05:30 48.12792 16.53060 3009 ft 276 kts 263°
2026-05-08 05:30 48.12082 16.50558 4018 ft 260 kts 236°
2026-05-08 05:31 48.10853 16.48573 4066 ft 264 kts 230°
2026-05-08 05:31 48.10391 16.47885 4098 ft 264 kts 224°
2026-05-08 05:32 48.09214 16.46855 3899 ft 271 kts 201°
2026-05-08 05:32 48.07320 16.46659 2860 ft 290 kts 166°
2026-05-08 05:32 48.05548 16.48318 1714 ft 305 kts 127°
2026-05-08 05:32 48.04714 16.50996 1488 ft 278 kts 92°
2026-05-08 05:33 48.04820 16.52763 2140 ft 218 kts 65°
2026-05-08 05:33 48.04863 16.52949 2182 ft 216 kts 63°
2026-05-08 05:35 48.05510 16.54437 1682 ft 235 kts 38°
2026-05-08 05:35 48.06912 16.55258 1685 ft 202 kts 358°
2026-05-08 05:36 48.08152 16.54688 1741 ft 178 kts 325°
2026-05-08 05:36 48.09137 16.53598 1760 ft 175 kts 322°
2026-05-08 05:36 48.09849 16.52119 1390 ft 182 kts 280°
2026-05-08 05:36 48.09941 16.50253 922 ft 178 kts 278°
2026-05-08 05:37 48.10212 16.48523 871 ft 170 kts 291°
2026-05-08 05:37 48.10593 16.46783 947 ft 181 kts 283°
2026-05-08 05:37 48.10839 16.44875 1064 ft 195 kts 281°
2026-05-08 05:37 48.11090 16.42876 1656 ft 188 kts 285°
2026-05-08 05:38 48.11335 16.41025 2472 ft 179 kts 285°
2026-05-08 05:38 48.11591 16.39183 2949 ft 182 kts 284°
2026-05-08 05:38 48.11852 16.37347 3482 ft 182 kts 284°
2026-05-08 05:38 48.12137 16.35396 3697 ft 202 kts 284°
2026-05-08 05:39 48.12457 16.33242 3840 ft 222 kts 284°
2026-05-08 05:39 48.12812 16.30888 4018 ft 240 kts 284°
2026-05-08 05:39 48.13188 16.28395 4432 ft 249 kts 284°
2026-05-08 05:39 48.13573 16.25854 4955 ft 255 kts 284°
2026-05-08 05:40 48.13971 16.23248 5545 ft 256 kts 285°
2026-05-08 05:40 48.14707 16.20837 5905 ft 261 kts 313°
2026-05-08 05:40 48.16193 16.19297 6446 ft 260 kts 333°
2026-05-08 05:40 48.17831 16.18105 6932 ft 264 kts 332°
2026-05-08 05:41 48.19481 16.16869 7497 ft 266 kts 332°
2026-05-08 05:41 48.21150 16.15628 8043 ft 268 kts 331°
2026-05-08 05:41 48.22838 16.14379 8533 ft 272 kts 331°
2026-05-08 05:41 48.24543 16.13116 9052 ft 274 kts 331°
2026-05-08 05:42 48.26256 16.11820 9559 ft 277 kts 329°
2026-05-08 05:42 48.27950 16.10481 10042 ft 280 kts 329°
2026-05-08 05:42 48.29698 16.09085 10290 ft 292 kts 329°
2026-05-08 05:42 48.31546 16.07607 10422 ft 308 kts 329°
2026-05-08 05:43 48.33494 16.06051 10564 ft 325 kts 329°
2026-05-08 05:43 48.35551 16.04409 10702 ft 343 kts 329°
2026-05-08 05:43 48.37707 16.02690 11005 ft 357 kts 329°
2026-05-08 05:43 48.39930 16.00921 11483 ft 365 kts 329°
2026-05-08 05:44 48.42160 15.99146 12125 ft 369 kts 329°
2026-05-08 05:44 48.44439 15.97333 12833 ft 372 kts 329°
2026-05-08 05:44 48.46744 15.95496 13538 ft 375 kts 329°
2026-05-08 05:44 48.49068 15.93642 14149 ft 379 kts 329°
2026-05-08 05:45 48.51413 15.91767 14729 ft 383 kts 329°
2026-05-08 05:45 48.53525 15.90076 15260 ft 385 kts 329°
2026-05-08 05:45 48.55172 15.88757 15662 ft 387 kts 329°
2026-05-08 05:45 48.58345 15.86212 16411 ft 391 kts 329°
2026-05-08 05:46 48.59973 15.84905 16777 ft 393 kts 329°
2026-05-08 05:46 48.62370 15.82980 17311 ft 396 kts 329°
2026-05-08 05:46 48.64814 15.81014 17833 ft 400 kts 329°
2026-05-08 05:46 48.67287 15.79021 18371 ft 402 kts 329°
2026-05-08 05:47 48.69766 15.77023 18861 ft 404 kts 329°
2026-05-08 05:47 48.72254 15.75015 19304 ft 406 kts 329°
2026-05-08 05:47 48.74755 15.72994 19739 ft 409 kts 329°
2026-05-08 05:47 48.77276 15.70954 20172 ft 412 kts 329°
2026-05-08 05:48 48.79779 15.68927 20592 ft 414 kts 329°
2026-05-08 05:48 48.82332 15.66857 21007 ft 416 kts 329°
2026-05-08 05:48 48.84905 15.64768 21427 ft 419 kts 329°
2026-05-08 05:48 48.87481 15.62675 21846 ft 421 kts 329°
2026-05-08 05:49 48.90127 15.60706 22246 ft 426 kts 334°
2026-05-08 05:49 48.92897 15.59050 22576 ft 430 kts 336°
2026-05-08 05:49 48.95717 15.57431 22927 ft 434 kts 337°
2026-05-08 05:49 48.98519 15.55830 23335 ft 436 kts 336°
2026-05-08 05:50 49.01363 15.54197 23756 ft 437 kts 336°
2026-05-08 05:50 49.04222 15.52542 24113 ft 439 kts 336°
2026-05-08 05:50 49.07079 15.50876 24460 ft 440 kts 336°
2026-05-08 05:50 49.09945 15.49194 24804 ft 442 kts 336°
2026-05-08 05:51 49.12817 15.47503 25132 ft 444 kts 336°
2026-05-08 05:51 49.15706 15.45796 25479 ft 445 kts 336°
2026-05-08 05:51 49.18606 15.44080 25734 ft 449 kts 336°
2026-05-08 05:51 49.21483 15.42375 26014 ft 451 kts 336°
2026-05-08 05:52 49.24415 15.40636 26353 ft 452 kts 336°
2026-05-08 05:52 49.27348 15.38895 26695 ft 453 kts 336°
2026-05-08 05:52 49.30290 15.37146 27021 ft 454 kts 336°
2026-05-08 05:52 49.33250 15.35385 27338 ft 456 kts 336°
2026-05-08 05:53 49.36213 15.33618 27630 ft 458 kts 336°
2026-05-08 05:53 49.39185 15.31845 27924 ft 459 kts 336°
2026-05-08 05:53 49.42166 15.30064 28236 ft 461 kts 336°
2026-05-08 05:53 49.45164 15.28270 28505 ft 462 kts 336°
2026-05-08 05:54 49.48168 15.26470 28769 ft 464 kts 336°
2026-05-08 05:54 49.51177 15.24666 29025 ft 465 kts 336°
2026-05-08 05:54 49.54163 15.22873 29285 ft 466 kts 335°
2026-05-08 05:54 49.57188 15.21054 29518 ft 467 kts 335°
2026-05-08 05:55 49.60225 15.19224 29755 ft 469 kts 335°
2026-05-08 05:55 49.63261 15.17394 30027 ft 469 kts 335°
2026-05-08 05:55 49.66298 15.15560 30324 ft 468 kts 336°
2026-05-08 05:55 49.69338 15.13721 30519 ft 469 kts 336°
2026-05-08 05:56 49.72385 15.11877 30741 ft 469 kts 335°
2026-05-08 05:56 49.75422 15.10036 30995 ft 468 kts 335°
2026-05-08 05:56 49.78461 15.08192 31252 ft 468 kts 335°
2026-05-08 05:56 49.81492 15.06351 31540 ft 466 kts 335°
2026-05-08 05:57 49.84471 15.04538 31804 ft 466 kts 335°
2026-05-08 05:57 49.87487 15.02699 32031 ft 466 kts 335°
2026-05-08 05:57 49.90509 15.00854 32264 ft 466 kts 336°
2026-05-08 05:57 49.93538 14.99001 32430 ft 468 kts 336°
2026-05-08 05:58 49.96567 14.97147 32658 ft 468 kts 336°
2026-05-08 05:58 49.99597 14.95291 32912 ft 467 kts 335°
2026-05-08 05:58 50.02618 14.93437 33159 ft 466 kts 335°
2026-05-08 05:58 50.05606 14.91601 33392 ft 466 kts 335°
2026-05-08 05:59 50.08631 14.89740 33604 ft 466 kts 335°
2026-05-08 05:59 50.11645 14.87882 33847 ft 466 kts 335°
2026-05-08 05:59 50.14669 14.86016 34017 ft 467 kts 335°
2026-05-08 06:00 50.20746 14.82257 34095 ft 470 kts 335°
2026-05-08 06:00 50.26751 14.78536 34094 ft 463 kts 335°
2026-05-08 06:01 50.32734 14.74818 34131 ft 461 kts 335°
2026-05-08 06:01 50.38667 14.71118 34111 ft 461 kts 335°
2026-05-08 06:02 50.44608 14.67403 34113 ft 462 kts 335°
2026-05-08 06:02 50.50584 14.63658 34109 ft 462 kts 335°
2026-05-08 06:03 50.56537 14.59916 34113 ft 463 kts 335°
2026-05-08 06:03 50.62534 14.56136 34119 ft 464 kts 335°
2026-05-08 06:04 50.68532 14.52346 34123 ft 464 kts 336°
2026-05-08 06:04 50.74507 14.48561 34121 ft 465 kts 335°
2026-05-08 06:05 50.80513 14.44742 34118 ft 465 kts 335°
2026-05-08 06:05 50.86524 14.40913 34122 ft 465 kts 335°
2026-05-08 06:06 50.92362 14.36513 34139 ft 462 kts 327°
2026-05-08 06:06 50.97547 14.30544 34129 ft 460 kts 317°
2026-05-08 06:07 51.02300 14.23854 34130 ft 459 kts 317°
2026-05-08 06:07 51.07125 14.17170 34133 ft 459 kts 317°
2026-05-08 06:08 51.11959 14.10504 34127 ft 459 kts 317°
2026-05-08 06:08 51.16781 14.03832 34132 ft 459 kts 317°
2026-05-08 06:09 51.21572 13.97180 34142 ft 459 kts 317°
2026-05-08 06:09 51.26389 13.90474 34135 ft 459 kts 317°
2026-05-08 06:10 51.31202 13.83750 34132 ft 459 kts 317°
2026-05-08 06:10 51.35977 13.77056 34139 ft 459 kts 317°
2026-05-08 06:11 51.40782 13.70302 34138 ft 459 kts 317°
2026-05-08 06:11 51.45575 13.63546 34139 ft 458 kts 317°
2026-05-08 06:12 51.50362 13.56779 34147 ft 458 kts 317°
2026-05-08 06:12 51.55116 13.50039 34147 ft 459 kts 317°
2026-05-08 06:13 51.59897 13.43239 34148 ft 459 kts 317°
2026-05-08 06:13 51.64678 13.36422 34152 ft 459 kts 317°
2026-05-08 06:14 51.69451 13.29588 34158 ft 459 kts 317°
2026-05-08 06:14 51.74213 13.22733 34157 ft 458 kts 317°
2026-05-08 06:15 51.78945 13.15907 34168 ft 459 kts 317°
2026-05-08 06:15 51.83711 13.09008 34150 ft 460 kts 317°
2026-05-08 06:16 51.88471 13.02095 34147 ft 460 kts 317°
2026-05-08 06:16 51.93234 12.95162 34148 ft 460 kts 317°
2026-05-08 06:17 52.00339 12.84801 34155 ft 459 kts 317°
2026-05-08 06:17 52.05090 12.77847 34149 ft 460 kts 316°
2026-05-08 06:18 52.09842 12.70869 34164 ft 461 kts 316°
2026-05-08 06:18 52.14613 12.63840 34166 ft 462 kts 316°
2026-05-08 06:19 52.19377 12.56789 34153 ft 462 kts 316°
2026-05-08 06:19 52.24142 12.49720 34170 ft 463 kts 316°
2026-05-08 06:20 52.28695 12.42397 34152 ft 462 kts 312°
2026-05-08 06:20 52.33111 12.34742 34169 ft 463 kts 313°
2026-05-08 06:21 52.37859 12.27589 34172 ft 464 kts 317°
2026-05-08 06:21 52.42724 12.20718 34171 ft 465 kts 317°
2026-05-08 06:22 52.47594 12.13735 34172 ft 465 kts 317°
2026-05-08 06:22 52.52441 12.06686 34172 ft 465 kts 317°
2026-05-08 06:23 52.57287 11.99604 34172 ft 466 kts 317°
2026-05-08 06:23 52.62136 11.92506 34180 ft 467 kts 317°
2026-05-08 06:24 52.67153 11.85786 34188 ft 468 kts 321°
2026-05-08 06:24 52.72348 11.79308 34172 ft 469 kts 321°
2026-05-08 06:25 52.77547 11.72783 34178 ft 469 kts 321°
2026-05-08 06:25 52.82734 11.66207 34182 ft 469 kts 321°
2026-05-08 06:26 52.87911 11.59612 34183 ft 470 kts 321°
2026-05-08 06:26 52.93062 11.53036 34177 ft 470 kts 321°
2026-05-08 06:27 52.98246 11.46378 34178 ft 471 kts 321°
2026-05-08 06:27 53.03401 11.39729 34191 ft 471 kts 321°
2026-05-08 06:28 53.08561 11.33021 34183 ft 471 kts 318°
2026-05-08 06:28 53.12982 11.25048 34192 ft 468 kts 305°
2026-05-08 06:29 53.16290 11.15730 34193 ft 466 kts 297°
2026-05-08 06:29 53.19314 11.06196 34190 ft 467 kts 297°
2026-05-08 06:30 53.22399 10.96635 34189 ft 467 kts 297°
2026-05-08 06:30 53.25488 10.87084 34193 ft 468 kts 297°
2026-05-08 06:31 53.28571 10.77479 34193 ft 468 kts 297°
2026-05-08 06:31 53.31644 10.67855 34191 ft 469 kts 297°
2026-05-08 06:32 53.34695 10.58268 34194 ft 469 kts 297°
2026-05-08 06:32 53.37764 10.48589 34189 ft 470 kts 297°
2026-05-08 06:33 53.40807 10.38957 34194 ft 470 kts 297°
2026-05-08 06:33 53.43861 10.29256 34202 ft 470 kts 297°
2026-05-08 06:34 53.46924 10.19547 34200 ft 469 kts 297°
2026-05-08 06:34 53.49919 10.09876 34207 ft 468 kts 296°
2026-05-08 06:35 53.52340 10.01740 34211 ft 468 kts 295°
2026-05-08 06:35 53.55241 9.91943 34211 ft 467 kts 295°
2026-05-08 06:36 53.58143 9.82163 34212 ft 467 kts 295°
2026-05-08 06:36 53.61041 9.72375 34214 ft 467 kts 295°
2026-05-08 06:37 53.64033 9.62738 34200 ft 466 kts 304°
2026-05-08 06:37 53.66210 9.58681 34201 ft 469 kts 319°
2026-05-08 06:37 53.68909 9.55557 34206 ft 472 kts 332°
2026-05-08 06:38 53.75026 9.51581 34204 ft 475 kts 339°
2026-05-08 06:38 53.81298 9.47864 34202 ft 479 kts 339°
2026-05-08 06:39 53.87600 9.44023 34212 ft 482 kts 339°
2026-05-08 06:39 53.93882 9.40106 34200 ft 484 kts 338°
2026-05-08 06:40 54.00210 9.36125 34193 ft 485 kts 338°
2026-05-08 06:40 54.06543 9.32131 34193 ft 485 kts 338°
2026-05-08 06:41 54.12870 9.28131 34197 ft 484 kts 338°
2026-05-08 06:41 54.19189 9.24122 34190 ft 483 kts 339°
2026-05-08 06:42 54.25456 9.20138 34203 ft 483 kts 339°
2026-05-08 06:42 54.31758 9.16115 34209 ft 482 kts 339°
2026-05-08 06:43 54.38051 9.12085 34207 ft 482 kts 339°
2026-05-08 06:43 54.44331 9.08050 34213 ft 483 kts 339°
2026-05-08 06:44 54.50607 9.04005 34216 ft 484 kts 339°
2026-05-08 06:44 54.56924 8.99918 34217 ft 485 kts 339°
2026-05-08 06:45 54.63247 8.95815 34217 ft 486 kts 339°
2026-05-08 06:45 54.69580 8.91691 34212 ft 487 kts 339°
2026-05-08 06:46 54.75929 8.87543 34228 ft 488 kts 339°
2026-05-08 06:46 54.82260 8.83394 34223 ft 490 kts 339°
2026-05-08 06:47 54.88645 8.79196 34221 ft 491 kts 339°
2026-05-08 06:47 54.95027 8.74932 34220 ft 492 kts 339°
2026-05-08 06:48 55.01387 8.70603 34228 ft 493 kts 339°
2026-05-08 06:48 55.07791 8.66248 34226 ft 495 kts 339°
2026-05-08 06:49 55.14212 8.61870 34230 ft 496 kts 339°
2026-05-08 06:49 55.20651 8.57459 34218 ft 496 kts 339°
2026-05-08 06:50 55.27057 8.53056 34223 ft 497 kts 339°
2026-05-08 06:50 55.33511 8.48605 34218 ft 498 kts 339°
2026-05-08 06:51 55.39969 8.44136 34213 ft 498 kts 339°
2026-05-08 06:51 55.46391 8.39680 34222 ft 499 kts 339°
2026-05-08 06:52 55.52865 8.35186 34213 ft 499 kts 339°
2026-05-08 06:52 55.59351 8.30666 34233 ft 500 kts 339°
2026-05-08 06:53 55.65765 8.26031 34235 ft 501 kts 338°
2026-05-08 06:53 55.72185 8.21210 34233 ft 501 kts 338°
2026-05-08 06:54 55.78628 8.16388 34215 ft 501 kts 338°
2026-05-08 06:54 55.85065 8.11579 34217 ft 501 kts 338°
2026-05-08 06:55 55.91459 8.06786 34215 ft 501 kts 338°
2026-05-08 06:55 55.97905 8.01938 34231 ft 501 kts 338°
2026-05-08 06:56 56.04333 7.97085 34236 ft 501 kts 338°
2026-05-08 06:56 56.10768 7.92209 34224 ft 502 kts 337°
2026-05-08 06:57 56.17158 7.87349 34224 ft 502 kts 337°
2026-05-08 06:57 56.23596 7.82435 34226 ft 502 kts 337°
2026-05-08 06:58 56.30039 7.77499 34223 ft 503 kts 337°
2026-05-08 06:58 56.36452 7.72568 34223 ft 503 kts 337°
2026-05-08 06:59 56.42895 7.67596 34221 ft 503 kts 337°
2026-05-08 06:59 56.49338 7.62604 34219 ft 503 kts 337°
2026-05-08 07:00 56.55737 7.57629 34224 ft 503 kts 336°
2026-05-08 07:00 56.62174 7.52606 34235 ft 503 kts 336°
2026-05-08 07:01 56.68625 7.47553 34229 ft 504 kts 336°
2026-05-08 07:01 56.75031 7.42515 34222 ft 504 kts 336°
2026-05-08 07:02 56.81490 7.37418 34223 ft 504 kts 336°
2026-05-08 07:02 56.87930 7.32317 34223 ft 504 kts 336°
2026-05-08 07:03 56.94337 7.27222 34223 ft 504 kts 336°
2026-05-08 07:03 57.00769 7.22089 34223 ft 504 kts 335°
2026-05-08 07:04 57.07197 7.16940 34224 ft 503 kts 335°